| time (UTC) | temp C | wind direction | speed KPH | gust KPH | rain 1hr cm | rain 24hr cm | rain mn cm | humidity % | barometer mb |
| 20260509213213 | 12 | 5 | 0.0 | 0.0 | 0.00 | 1.14 | 1.14 | 92 | 1008.7 |
| 20260509212712 | 11 | 333 | 3.2 | 4.8 | 0.00 | 1.14 | 1.14 | 91 | 1009.2 |
| 20260509212208 | 11 | 328 | 3.2 | 4.8 | 0.00 | 1.14 | 1.14 | 92 | 1008.9 |
| 20260509211704 | 11 | 68 | 3.2 | 4.8 | 0.00 | 1.14 | 1.14 | 91 | 1009.1 |
| 20260509211202 | 11 | 307 | 3.2 | 3.2 | 0.00 | 1.14 | 1.14 | 92 | 1009.1 |
| 20260509210658 | 11 | 341 | 1.6 | 1.6 | 0.00 | 1.14 | 1.14 | 93 | 1009.2 |
| 20260509210155 | 11 | 318 | 3.2 | 3.2 | 0.00 | 1.14 | 1.14 | 93 | 1009.1 |
| 20260509205650 | 11 | 287 | 4.8 | 4.8 | 0.00 | 1.14 | 1.14 | 93 | 1009.1 |
| 20260509205149 | 11 | 302 | 3.2 | 4.8 | 0.00 | 1.14 | 1.14 | 92 | 1009.0 |
| 20260509204647 | 11 | 326 | 6.4 | 9.7 | 0.00 | 1.14 | 1.14 | 92 | 1009.0 |
| 20260509204143 | 11 | 281 | 4.8 | 6.4 | 0.00 | 1.14 | 1.14 | 92 | 1009.0 |
| 20260509203639 | 11 | 311 | 3.2 | 4.8 | 0.00 | 1.14 | 1.14 | 93 | 1009.1 |
| 20260509203138 | 11 | 301 | 3.2 | 3.2 | 0.00 | 1.14 | 1.14 | 94 | 1009.2 |
| 20260509202637 | 10 | 292 | 4.8 | 6.4 | 0.00 | 1.14 | 1.14 | 94 | 1009.1 |
| 20260509202132 | 10 | 323 | 3.2 | 3.2 | 0.00 | 1.14 | 1.14 | 94 | 1009.0 |
| 20260509201628 | 10 | 333 | 1.6 | 3.2 | 0.00 | 1.14 | 1.14 | 95 | 1009.3 |
| 20260509201125 | 10 | 346 | 1.6 | 1.6 | 0.00 | 1.14 | 1.14 | 95 | 1009.3 |
| 20260509200621 | 10 | 344 | 0.0 | 0.0 | 0.00 | 1.14 | 1.14 | 95 | 1009.4 |
| 20260509200117 | 10 | 17 | 0.0 | 1.6 | 0.00 | 1.14 | 1.14 | 95 | 1009.5 |
| 20260509195612 | 10 | 341 | 0.0 | 0.0 | 0.00 | 1.14 | 1.14 | 95 | 1009.7 |
| 20260509195102 | 10 | 354 | 0.0 | 1.6 | 0.13 | 1.14 | 1.14 | 95 | 1009.6 |
| 20260509194601 | 10 | 273 | 3.2 | 4.8 | 0.13 | 1.14 | 1.14 | 95 | 1009.6 |
| 20260509194100 | 10 | 339 | 1.6 | 3.2 | 0.00 | 1.12 | 1.12 | 95 | 1009.7 |
| 20260509193555 | 10 | 338 | 0.0 | 0.0 | 0.00 | 1.12 | 1.12 | 96 | 1009.7 |
| 20260509193051 | 10 | 347 | 1.6 | 3.2 | 0.18 | 1.12 | 1.12 | 96 | 1009.7 |
| 20260509192548 | 10 | 348 | 3.2 | 3.2 | 0.18 | 1.12 | 1.12 | 95 | 1009.7 |
| 20260509192042 | 10 | 332 | 1.6 | 3.2 | 0.00 | 1.09 | 1.09 | 95 | 1009.6 |
| 20260509191537 | 10 | 334 | 3.2 | 3.2 | 0.00 | 1.09 | 1.09 | 95 | 1009.7 |
| 20260509191033 | 10 | 329 | 1.6 | 3.2 | 0.00 | 1.09 | 1.09 | 95 | 1009.9 |
| 20260509190530 | 10 | 347 | 1.6 | 1.6 | 0.13 | 1.09 | 1.09 | 95 | 1009.8 |
| 20260509190028 | 10 | 344 | 1.6 | 1.6 | 0.13 | 1.09 | 1.09 | 95 | 1010.0 |
| 20260509185525 | 10 | 319 | 3.2 | 4.8 | 0.00 | 1.07 | 1.07 | 95 | 1009.8 |
| 20260509185021 | 10 | 338 | 1.6 | 3.2 | 0.00 | 1.07 | 1.07 | 95 | 1009.9 |
| 20260509184520 | 10 | 354 | 1.6 | 1.6 | 0.00 | 1.07 | 1.07 | 95 | 1010.0 |
| 20260509184015 | 10 | 349 | 1.6 | 1.6 | 0.00 | 1.07 | 1.07 | 95 | 1010.0 |
| 20260509183511 | 10 | 351 | 3.2 | 3.2 | 0.00 | 1.07 | 1.07 | 95 | 1010.0 |
| 20260509183007 | 10 | 344 | 3.2 | 3.2 | 0.00 | 1.07 | 1.07 | 96 | 1009.9 |
| 20260509182503 | 10 | 341 | 4.8 | 4.8 | 0.00 | 1.07 | 1.07 | 95 | 1010.0 |
| 20260509182000 | 10 | 342 | 0.0 | 1.6 | 0.18 | 1.07 | 1.07 | 95 | 1010.0 |
| 20260509181459 | 10 | 357 | 6.4 | 6.4 | 0.36 | 1.07 | 1.07 | 95 | 1009.8 |
| 20260509180956 | 10 | 322 | 1.6 | 3.2 | 0.18 | 1.04 | 1.04 | 95 | 1009.9 |
| 20260509180451 | 10 | 346 | 0.0 | 1.6 | 0.13 | 1.02 | 1.02 | 95 | 1009.9 |
| 20260509175949 | 10 | 356 | 3.2 | 3.2 | 0.13 | 1.02 | 1.02 | 95 | 1009.7 |
| 20260509175444 | 10 | 167 | 4.8 | 6.4 | 0.00 | 0.99 | 0.99 | 95 | 1009.8 |
| 20260509174941 | 10 | 339 | 3.2 | 3.2 | 0.00 | 0.99 | 0.99 | 95 | 1009.7 |
| 20260509174438 | 10 | 327 | 1.6 | 3.2 | 0.00 | 0.99 | 0.99 | 95 | 1009.7 |
| 20260509173933 | 10 | 240 | 6.4 | 6.4 | 0.18 | 0.99 | 0.99 | 95 | 1009.6 |
| 20260509173432 | 9 | 309 | 1.6 | 3.2 | 0.18 | 0.99 | 0.99 | 95 | 1009.8 |
| 20260509172929 | 9 | 4 | 0.0 | 0.0 | 0.13 | 0.97 | 0.97 | 95 | 1009.8 |
| 20260509172426 | 9 | 346 | 4.8 | 4.8 | 0.30 | 0.97 | 0.97 | 95 | 1009.8 |
| 20260509171922 | 9 | 288 | 4.8 | 4.8 | 0.30 | 0.94 | 0.94 | 95 | 1009.7 |
| 20260509171418 | 9 | 35 | 1.6 | 1.6 | 0.30 | 0.91 | 0.91 | 95 | 1010.0 |
| 20260509170915 | 9 | 332 | 6.4 | 6.4 | 0.30 | 0.89 | 0.89 | 95 | 1010.0 |
| 20260509170410 | 9 | 9 | 0.0 | 0.0 | 0.30 | 0.86 | 0.86 | 96 | 1010.1 |
| 20260509165907 | 9 | 332 | 1.6 | 1.6 | 0.18 | 0.84 | 0.84 | 95 | 1009.9 |
| 20260509165401 | 9 | 20 | 0.0 | 0.0 | 0.13 | 0.81 | 0.81 | 95 | 1009.7 |
| 20260509164857 | 9 | 326 | 3.2 | 4.8 | 0.13 | 0.81 | 0.81 | 95 | 1009.7 |
| 20260509164353 | 9 | 352 | 4.8 | 4.8 | 0.18 | 0.79 | 0.79 | 95 | 1009.7 |
| 20260509163849 | 9 | 340 | 3.2 | 4.8 | 0.18 | 0.79 | 0.79 | 95 | 1009.7 |
| 20260509163346 | 9 | 309 | 1.6 | 3.2 | 0.00 | 0.76 | 0.76 | 95 | 1009.8 |
| 20260509162845 | 9 | 347 | 6.4 | 6.4 | 0.13 | 0.76 | 0.76 | 94 | 1009.9 |
| 20260509162343 | 9 | 266 | 3.2 | 4.8 | 0.13 | 0.76 | 0.76 | 95 | 1009.6 |
| 20260509161840 | 9 | 81 | 3.2 | 4.8 | 0.00 | 0.74 | 0.74 | 94 | 1009.8 |
| 20260509161336 | 9 | 349 | 3.2 | 3.2 | 0.18 | 0.74 | 0.74 | 94 | 1009.8 |
| 20260509160832 | 9 | 342 | 3.2 | 3.2 | 0.18 | 0.74 | 0.74 | 94 | 1010.0 |
| 20260509160329 | 9 | 13 | 0.0 | 1.6 | 0.00 | 0.71 | 0.71 | 94 | 1010.1 |
| 20260509155823 | 9 | 336 | 3.2 | 4.8 | 0.00 | 0.71 | 0.71 | 94 | 1010.1 |
| 20260509155320 | 9 | 298 | 3.2 | 3.2 | 0.18 | 0.71 | 0.71 | 94 | 1010.0 |
| 20260509154816 | 9 | 339 | 1.6 | 1.6 | 0.18 | 0.71 | 0.71 | 94 | 1010.0 |
| 20260509154313 | 9 | 318 | 1.6 | 1.6 | 0.00 | 0.69 | 0.69 | 95 | 1010.0 |
| 20260509153810 | 9 | 327 | 0.0 | 1.6 | 0.13 | 0.69 | 0.69 | 94 | 1010.3 |
| 20260509153306 | 9 | 357 | 0.0 | 0.0 | 0.13 | 0.69 | 0.69 | 95 | 1010.2 |
| 20260509152803 | 9 | 356 | 0.0 | 1.6 | 0.18 | 0.66 | 0.66 | 94 | 1010.4 |
| 20260509152259 | 9 | 349 | 1.6 | 1.6 | 0.18 | 0.66 | 0.66 | 94 | 1010.3 |
| 20260509151756 | 9 | 70 | 4.8 | 4.8 | 0.00 | 0.64 | 0.64 | 94 | 1010.3 |
| 20260509151253 | 9 | 334 | 1.6 | 1.6 | 0.00 | 0.64 | 0.64 | 94 | 1010.3 |
| 20260509150751 | 9 | 358 | 0.0 | 0.0 | 0.13 | 0.64 | 0.64 | 94 | 1010.2 |
| 20260509150249 | 9 | 63 | 4.8 | 4.8 | 0.13 | 0.64 | 0.64 | 93 | 1010.4 |
| 20260509145746 | 9 | 357 | 0.0 | 0.0 | 0.18 | 0.61 | 0.61 | 94 | 1010.6 |
| 20260509145245 | 9 | 29 | 1.6 | 3.2 | 0.18 | 0.61 | 0.61 | 94 | 1010.4 |
| 20260509144742 | 9 | 321 | 1.6 | 1.6 | 0.13 | 0.58 | 0.58 | 94 | 1010.6 |
| 20260509144239 | 9 | 340 | 0.0 | 0.0 | 0.13 | 0.58 | 0.58 | 94 | 1010.4 |
| 20260509143736 | 8 | 10 | 1.6 | 1.6 | 0.00 | 0.56 | 0.56 | 94 | 1010.6 |
| 20260509143234 | 9 | 350 | 0.0 | 0.0 | 0.00 | 0.56 | 0.56 | 95 | 1010.7 |
| 20260509142730 | 9 | 337 | 1.6 | 1.6 | 0.18 | 0.56 | 0.56 | 95 | 1010.7 |
| 20260509142226 | 9 | 334 | 1.6 | 1.6 | 0.18 | 0.56 | 0.56 | 94 | 1010.7 |
| 20260509141721 | 9 | 336 | 3.2 | 3.2 | 0.13 | 0.53 | 0.53 | 95 | 1010.4 |
| 20260509141219 | 8 | 346 | 0.0 | 1.6 | 0.13 | 0.53 | 0.53 | 95 | 1010.6 |
| 20260509140715 | 9 | 354 | 1.6 | 1.6 | 0.18 | 0.51 | 0.51 | 95 | 1010.6 |
| 20260509140213 | 9 | 349 | 0.0 | 1.6 | 0.18 | 0.51 | 0.51 | 96 | 1010.6 |
| 20260509135710 | 8 | 345 | 1.6 | 3.2 | 0.18 | 0.51 | 0.51 | 96 | 1010.8 |
| 20260509135208 | 8 | 348 | 0.0 | 0.0 | 0.00 | 0.48 | 0.48 | 96 | 1010.6 |
| 20260509134705 | 8 | 9 | 0.0 | 0.0 | 0.13 | 0.48 | 0.48 | 96 | 1010.3 |
| 20260509134202 | 8 | 328 | 1.6 | 1.6 | 0.13 | 0.48 | 0.48 | 96 | 1010.7 |
| 20260509133659 | 8 | 12 | 0.0 | 1.6 | 0.00 | 0.46 | 0.46 | 97 | 1010.7 |
| 20260509133156 | 8 | 27 | 0.0 | 0.0 | 0.00 | 0.46 | 0.46 | 98 | 1010.7 |
| 20260509132654 | 8 | 345 | 0.0 | 0.0 | 0.18 | 0.46 | 0.46 | 99 | 1010.6 |
| 20260509132153 | 8 | 345 | 0.0 | 0.0 | 0.18 | 0.46 | 0.46 | 99 | 1010.6 |
| 20260509131648 | 8 | 345 | 0.0 | 0.0 | 0.00 | 0.43 | 0.43 | 99 | 1010.6 |
| 20260509131145 | 8 | 345 | 0.0 | 0.0 | 0.00 | 0.43 | 0.43 | 99 | 1010.4 |
| 20260509130641 | 8 | 345 | 0.0 | 0.0 | 0.00 | 0.43 | 0.43 | 99 | 1010.4 |
| 20260509130137 | 8 | 345 | 0.0 | 0.0 | 0.00 | 0.43 | 0.43 | 99 | 1010.4 |
| 20260509125634 | 8 | 345 | 0.0 | 1.6 | 0.00 | 0.43 | 0.43 | 99 | 1010.3 |
| 20260509125131 | 8 | 345 | 1.6 | 1.6 | 0.00 | 0.43 | 0.43 | 99 | 1010.3 |
| 20260509124627 | 8 | 345 | 0.0 | 0.0 | 0.13 | 0.43 | 0.43 | 99 | 1010.3 |
| 20260509124125 | 8 | 346 | 0.0 | 0.0 | 0.13 | 0.43 | 0.43 | 99 | 1010.2 |
| 20260509123623 | 8 | 345 | 0.0 | 0.0 | 0.00 | 0.41 | 0.41 | 99 | 1010.6 |
| 20260509123119 | 8 | 346 | 0.0 | 0.0 | 0.00 | 0.41 | 0.41 | 99 | 1010.4 |
| 20260509122615 | 8 | 346 | 0.0 | 0.0 | 0.00 | 0.41 | 0.41 | 99 | 1010.6 |
| 20260509122113 | 8 | 346 | 0.0 | 0.0 | 0.00 | 0.41 | 0.41 | 99 | 1010.6 |
| 20260509121609 | 7 | 346 | 0.0 | 0.0 | 0.00 | 0.41 | 0.41 | 99 | 1010.7 |
| 20260509121106 | 7 | 346 | 0.0 | 0.0 | 0.00 | 0.41 | 0.41 | 99 | 1010.7 |
| 20260509120604 | 7 | 346 | 0.0 | 0.0 | 0.00 | 0.41 | 0.41 | 99 | 1010.7 |
| 20260509115559 | 7 | 326 | 0.0 | 0.0 | 0.00 | 0.41 | 0.41 | 99 | 1010.8 |
| 20260509115057 | 7 | 344 | 0.0 | 0.0 | 0.18 | 0.41 | 0.41 | 99 | 1010.6 |
| 20260509114555 | 7 | 344 | 1.6 | 1.6 | 0.18 | 0.41 | 0.41 | 99 | 1010.4 |
| 20260509114054 | 7 | 344 | 0.0 | 0.0 | 0.00 | 0.38 | 0.38 | 99 | 1010.6 |
| 20260509113552 | 7 | 344 | 0.0 | 1.6 | 0.00 | 0.38 | 0.38 | 99 | 1010.2 |
| 20260509113049 | 7 | 346 | 0.0 | 0.0 | 0.00 | 0.38 | 0.38 | 99 | 1010.4 |
| 20260509112545 | 7 | 346 | 0.0 | 0.0 | 0.00 | 0.38 | 0.38 | 99 | 1010.3 |
| 20260509112042 | 7 | 346 | 0.0 | 0.0 | 0.00 | 0.38 | 0.38 | 99 | 1010.4 |
| 20260509111539 | 7 | 346 | 0.0 | 0.0 | 0.00 | 0.38 | 0.38 | 99 | 1010.4 |
| 20260509111036 | 7 | 346 | 0.0 | 0.0 | 0.00 | 0.38 | 0.38 | 99 | 1010.4 |
| 20260509110533 | 7 | 346 | 0.0 | 0.0 | 0.00 | 0.38 | 0.38 | 99 | 1010.4 |
| 20260509110030 | 7 | 346 | 0.0 | 0.0 | 0.00 | 0.38 | 0.38 | 99 | 1010.4 |
| 20260509105529 | 7 | 346 | 0.0 | 0.0 | 0.00 | 0.38 | 0.38 | 99 | 1010.3 |
| 20260509105026 | 7 | 346 | 0.0 | 0.0 | 0.00 | 0.38 | 0.38 | 99 | 1010.4 |
| 20260509104522 | 7 | 346 | 0.0 | 0.0 | 0.00 | 0.38 | 0.38 | 99 | 1010.4 |
| 20260509104019 | 7 | 346 | 0.0 | 0.0 | 0.00 | 0.38 | 0.38 | 99 | 1010.4 |
| 20260509103517 | 7 | 345 | 0.0 | 0.0 | 0.00 | 0.38 | 0.38 | 99 | 1010.4 |
| 20260509103015 | 7 | 345 | 0.0 | 0.0 | 0.00 | 0.38 | 0.38 | 99 | 1010.7 |
| 20260509102512 | 7 | 345 | 0.0 | 0.0 | 0.00 | 0.38 | 0.38 | 99 | 1010.7 |
| 20260509102009 | 7 | 345 | 0.0 | 0.0 | 0.00 | 0.38 | 0.38 | 99 | 1010.6 |
| 20260509101505 | 7 | 345 | 0.0 | 0.0 | 0.00 | 0.38 | 0.38 | 99 | 1010.4 |
| 20260509101002 | 7 | 345 | 0.0 | 0.0 | 0.00 | 0.38 | 0.38 | 99 | 1010.6 |
| 20260509100459 | 7 | 345 | 0.0 | 0.0 | 0.00 | 0.38 | 0.38 | 99 | 1010.1 |
| 20260509095956 | 7 | 344 | 0.0 | 0.0 | 0.00 | 0.38 | 0.38 | 99 | 1010.6 |
| 20260509095453 | 7 | 345 | 0.0 | 0.0 | 0.00 | 0.38 | 0.38 | 99 | 1010.6 |
| 20260509094950 | 7 | 344 | 0.0 | 0.0 | 0.00 | 0.38 | 0.38 | 99 | 1010.6 |
| 20260509094447 | 7 | 350 | 0.0 | 0.0 | 0.00 | 0.38 | 0.38 | 99 | 1010.6 |
| 20260509093944 | 7 | 350 | 0.0 | 0.0 | 0.00 | 0.38 | 0.38 | 99 | 1010.4 |
| 20260509093442 | 7 | 350 | 0.0 | 0.0 | 0.18 | 0.38 | 0.38 | 99 | 1010.7 |
| 20260509092940 | 7 | 350 | 0.0 | 0.0 | 0.18 | 0.38 | 0.38 | 99 | 1011.1 |
| 20260509092437 | 7 | 350 | 0.0 | 0.0 | 0.13 | 0.36 | 0.36 | 99 | 1010.8 |
| 20260509091936 | 7 | 350 | 0.0 | 0.0 | 0.13 | 0.36 | 0.36 | 99 | 1010.7 |
| 20260509091432 | 7 | 350 | 0.0 | 0.0 | 0.13 | 0.36 | 0.36 | 99 | 1010.7 |
| 20260509090929 | 7 | 350 | 0.0 | 0.0 | 0.00 | 0.33 | 0.33 | 99 | 1010.6 |
| 20260509090427 | 7 | 350 | 0.0 | 0.0 | 0.00 | 0.33 | 0.33 | 99 | 1010.6 |
| 20260509085924 | 7 | 350 | 0.0 | 0.0 | 0.00 | 0.33 | 0.33 | 99 | 1010.6 |
| 20260509085421 | 7 | 350 | 0.0 | 0.0 | 0.00 | 0.33 | 0.33 | 99 | 1010.4 |
| 20260509084917 | 7 | 350 | 0.0 | 0.0 | 0.00 | 0.33 | 0.33 | 99 | 1010.4 |
| 20260509084414 | 7 | 350 | 0.0 | 0.0 | 0.00 | 0.33 | 0.33 | 99 | 1010.4 |
| 20260509083912 | 7 | 350 | 0.0 | 0.0 | 0.00 | 0.33 | 0.33 | 99 | 1010.4 |
| 20260509083409 | 7 | 350 | 0.0 | 0.0 | 0.00 | 0.33 | 0.33 | 99 | 1010.8 |
| 20260509082905 | 7 | 350 | 0.0 | 0.0 | 0.00 | 0.33 | 0.33 | 99 | 1010.7 |
| 20260509082403 | 7 | 350 | 0.0 | 0.0 | 0.00 | 0.33 | 0.33 | 99 | 1010.6 |
| 20260509081859 | 7 | 350 | 0.0 | 0.0 | 0.00 | 0.33 | 0.33 | 99 | 1010.7 |
| 20260509081356 | 7 | 350 | 0.0 | 0.0 | 0.00 | 0.33 | 0.33 | 99 | 1010.6 |
| 20260509080854 | 7 | 350 | 0.0 | 0.0 | 0.00 | 0.33 | 0.33 | 99 | 1010.9 |
| 20260509080352 | 7 | 350 | 0.0 | 0.0 | 0.18 | 0.33 | 0.33 | 99 | 1010.8 |
| 20260509075850 | 7 | 350 | 0.0 | 0.0 | 0.18 | 0.33 | 0.33 | 99 | 1011.2 |
| 20260509075347 | 7 | 350 | 0.0 | 0.0 | 0.00 | 0.30 | 0.30 | 99 | 1011.1 |
| 20260509074844 | 7 | 350 | 0.0 | 0.0 | 0.00 | 0.30 | 0.30 | 99 | 1011.3 |
| 20260509074342 | 7 | 350 | 0.0 | 0.0 | 0.00 | 0.30 | 0.30 | 99 | 1011.3 |
| 20260509073837 | 7 | 350 | 0.0 | 0.0 | 0.00 | 0.30 | 0.30 | 99 | 1011.4 |
| 20260509073334 | 7 | 350 | 0.0 | 0.0 | 0.13 | 0.30 | 0.30 | 99 | 1011.3 |
| 20260509072831 | 7 | 350 | 0.0 | 0.0 | 0.13 | 0.30 | 0.30 | 99 | 1011.3 |
| 20260509072327 | 7 | 350 | 0.0 | 0.0 | 0.00 | 0.28 | 0.28 | 99 | 1011.4 |
| 20260509071824 | 7 | 350 | 0.0 | 0.0 | 0.18 | 0.28 | 0.28 | 99 | 1011.3 |
| 20260509071321 | 7 | 350 | 0.0 | 0.0 | 0.18 | 0.28 | 0.28 | 99 | 1011.4 |
| 20260509070818 | 7 | 350 | 0.0 | 0.0 | 0.18 | 0.28 | 0.28 | 99 | 1011.3 |
| 20260509070315 | 7 | 350 | 0.0 | 0.0 | 0.13 | 0.25 | 0.25 | 99 | 1011.6 |
| 20260509065811 | 7 | 350 | 0.0 | 0.0 | 0.13 | 0.25 | 0.25 | 99 | 1011.7 |
| 20260509065307 | 7 | 350 | 0.0 | 0.0 | 0.18 | 0.23 | 0.23 | 99 | 1011.6 |
| 20260509064803 | 7 | 350 | 0.0 | 0.0 | 0.30 | 0.23 | 0.23 | 99 | 1011.6 |
| 20260509064301 | 7 | 350 | 0.0 | 0.0 | 0.30 | 0.20 | 0.20 | 99 | 1011.7 |
| 20260509063759 | 7 | 350 | 0.0 | 0.0 | 0.18 | 0.18 | 0.18 | 99 | 1011.6 |
| 20260509063255 | 7 | 350 | 0.0 | 0.0 | 0.00 | 0.15 | 0.15 | 99 | 1011.7 |
| 20260509062752 | 7 | 350 | 0.0 | 0.0 | 0.13 | 0.15 | 0.15 | 99 | 1011.7 |
| 20260509062249 | 7 | 350 | 0.0 | 0.0 | 0.13 | 0.15 | 0.15 | 99 | 1011.8 |
| 20260509061746 | 7 | 350 | 0.0 | 0.0 | 0.00 | 0.13 | 0.13 | 99 | 1011.8 |
| 20260509061244 | 7 | 350 | 0.0 | 0.0 | 0.18 | 0.13 | 0.13 | 99 | 1011.7 |
| 20260509060741 | 7 | 350 | 0.0 | 0.0 | 0.18 | 0.13 | 0.13 | 99 | 1011.8 |
| 20260509060237 | 7 | 350 | 0.0 | 0.0 | 0.13 | 0.10 | 0.10 | 99 | 1011.8 |
| 20260509055733 | 7 | 350 | 0.0 | 0.0 | 0.13 | 0.10 | 0.10 | 99 | 1012.0 |
| 20260509055229 | 7 | 350 | 0.0 | 0.0 | 0.00 | 0.08 | 0.08 | 99 | 1012.0 |
| 20260509054726 | 7 | 350 | 0.0 | 0.0 | 0.18 | 0.08 | 0.08 | 99 | 1012.0 |
| 20260509054223 | 7 | 350 | 0.0 | 0.0 | 0.18 | 0.08 | 0.08 | 99 | 1012.0 |
| 20260509053721 | 7 | 350 | 0.0 | 0.0 | 0.00 | 0.05 | 0.05 | 99 | 1012.1 |
| 20260509053218 | 7 | 350 | 0.0 | 0.0 | 0.00 | 0.05 | 0.05 | 98 | 1012.0 |
| 20260509052716 | 7 | 350 | 0.0 | 0.0 | 0.00 | 0.05 | 0.05 | 98 | 1012.0 |
| 20260509052213 | 7 | 350 | 0.0 | 0.0 | 0.00 | 0.05 | 0.05 | 98 | 1012.0 |
| 20260509051711 | 7 | 350 | 0.0 | 0.0 | 0.00 | 0.05 | 0.05 | 98 | 1011.8 |
| 20260509051208 | 7 | 350 | 0.0 | 0.0 | 0.18 | 0.05 | 0.05 | 98 | 1011.7 |
| 20260509050705 | 7 | 350 | 0.0 | 0.0 | 0.18 | 0.05 | 0.05 | 98 | 1011.8 |
| 20260509050202 | 7 | 350 | 0.0 | 0.0 | 0.13 | 0.03 | 0.03 | 98 | 1011.8 |
| 20260509045659 | 7 | 350 | 0.0 | 0.0 | 0.13 | 0.03 | 0.03 | 98 | 1011.7 |
| 20260509045156 | 7 | 350 | 0.0 | 0.0 | 0.13 | 0.03 | 0.03 | 98 | 1011.7 |
| 20260509044653 | 7 | 350 | 0.0 | 0.0 | 0.00 | 0.00 | 0.00 | 98 | 1011.8 |
| 20260509044150 | 7 | 350 | 0.0 | 0.0 | 0.00 | 0.00 | 0.00 | 98 | 1011.6 |
| 20260509043647 | 7 | 350 | 0.0 | 0.0 | 0.00 | 0.00 | 0.00 | 98 | 1011.7 |
| 20260509043142 | 7 | 350 | 0.0 | 0.0 | 0.00 | 0.00 | 0.00 | 98 | 1011.7 |
| 20260509042639 | 7 | 350 | 0.0 | 0.0 | 0.00 | 0.00 | 0.00 | 98 | 1011.7 |
| 20260509042135 | 7 | 350 | 0.0 | 0.0 | 0.00 | 0.00 | 0.00 | 98 | 1011.9 |
| 20260509041632 | 7 | 350 | 0.0 | 0.0 | 0.00 | 0.00 | 0.00 | 97 | 1011.8 |
| 20260509041129 | 7 | 350 | 0.0 | 0.0 | 0.00 | 0.00 | 0.00 | 97 | 1011.7 |
| 20260509040628 | 7 | 350 | 0.0 | 0.0 | 0.00 | 0.00 | 0.00 | 97 | 1011.8 |
| 20260509040125 | 7 | 350 | 1.6 | 1.6 | 0.00 | 0.00 | 0.00 | 97 | 1011.9 |
| 20260509035621 | 6 | 1 | 1.6 | 1.6 | 0.00 | 0.08 | 0.08 | 97 | 1012.0 |
| 20260509035118 | 6 | 1 | 0.0 | 0.0 | 0.18 | 0.08 | 0.08 | 97 | 1012.2 |
| 20260509034616 | 6 | 2 | 0.0 | 0.0 | 0.18 | 0.08 | 0.08 | 97 | 1012.3 |
| 20260509034113 | 6 | 2 | 0.0 | 0.0 | 0.00 | 0.05 | 0.05 | 97 | 1012.2 |
| 20260509033609 | 6 | 2 | 0.0 | 0.0 | 0.00 | 0.05 | 0.05 | 97 | 1012.2 |
| 20260509033106 | 6 | 2 | 0.0 | 0.0 | 0.00 | 0.05 | 0.05 | 97 | 1012.1 |
| 20260509032604 | 6 | 2 | 0.0 | 0.0 | 0.00 | 0.05 | 0.05 | 97 | 1012.1 |
| 20260509032100 | 6 | 2 | 0.0 | 0.0 | 0.00 | 0.05 | 0.05 | 97 | 1012.0 |
| 20260509031558 | 6 | 2 | 0.0 | 0.0 | 0.00 | 0.05 | 0.05 | 97 | 1012.2 |
| 20260509031055 | 5 | 2 | 0.0 | 0.0 | 0.00 | 0.05 | 0.05 | 97 | 1012.1 |
| 20260509030554 | 5 | 2 | 0.0 | 0.0 | 0.00 | 0.05 | 0.05 | 97 | 1012.1 |
| 20260509030050 | 5 | 0 | 0.0 | 0.0 | 0.00 | 0.05 | 0.05 | 97 | 1012.2 |
| 20260509025546 | 5 | 0 | 0.0 | 0.0 | 0.00 | 0.05 | 0.05 | 97 | 1012.1 |
| 20260509025042 | 5 | 0 | 0.0 | 0.0 | 0.00 | 0.05 | 0.05 | 97 | 1012.0 |
| 20260509024538 | 5 | 0 | 0.0 | 0.0 | 0.00 | 0.05 | 0.05 | 96 | 1012.3 |
| 20260509024034 | 5 | 0 | 0.0 | 0.0 | 0.00 | 0.05 | 0.05 | 96 | 1012.3 |
| 20260509023532 | 5 | 0 | 0.0 | 0.0 | 0.00 | 0.05 | 0.05 | 96 | 1012.2 |
| 20260509023029 | 5 | 0 | 0.0 | 0.0 | 0.00 | 0.05 | 0.05 | 95 | 1012.2 |
| 20260509022525 | 6 | 0 | 0.0 | 0.0 | 0.00 | 0.05 | 0.05 | 95 | 1012.1 |
| 20260509022023 | 6 | 0 | 0.0 | 0.0 | 0.00 | 0.05 | 0.05 | 95 | 1012.0 |
| 20260509021520 | 6 | 0 | 0.0 | 0.0 | 0.00 | 0.05 | 0.05 | 95 | 1012.2 |
| 20260509021017 | 6 | 0 | 0.0 | 0.0 | 0.00 | 0.05 | 0.05 | 94 | 1012.1 |
| 20260509020515 | 6 | 0 | 0.0 | 0.0 | 0.00 | 0.05 | 0.05 | 93 | 1012.1 |
| 20260509020012 | 6 | 0 | 0.0 | 0.0 | 0.00 | 0.05 | 0.05 | 93 | 1012.1 |
| 20260509015511 | 6 | 1 | 0.0 | 0.0 | 0.00 | 0.05 | 0.05 | 93 | 1012.3 |
| 20260509015008 | 6 | 5 | 0.0 | 0.0 | 0.00 | 0.05 | 0.05 | 92 | 1012.1 |
| 20260509014504 | 7 | 5 | 0.0 | 0.0 | 0.00 | 0.05 | 0.05 | 92 | 1012.1 |
| 20260509014000 | 7 | 5 | 0.0 | 0.0 | 0.00 | 0.05 | 0.05 | 91 | 1012.1 |
| 20260509013457 | 7 | 5 | 0.0 | 0.0 | 0.00 | 0.05 | 0.05 | 90 | 1012.1 |
| 20260509012953 | 7 | 5 | 0.0 | 0.0 | 0.00 | 0.05 | 0.05 | 89 | 1012.0 |
| 20260509012450 | 8 | 359 | 0.0 | 0.0 | 0.00 | 0.05 | 0.05 | 88 | 1011.9 |
| 20260509011947 | 8 | 349 | 0.0 | 0.0 | 0.00 | 0.05 | 0.05 | 87 | 1011.8 |
| 20260509011444 | 8 | 344 | 3.2 | 3.2 | 0.00 | 0.05 | 0.05 | 86 | 1011.8 |
| 20260509010942 | 8 | 342 | 1.6 | 1.6 | 0.00 | 0.05 | 0.05 | 85 | 1011.7 |
| 20260509010439 | 8 | 356 | 3.2 | 3.2 | 0.00 | 0.05 | 0.05 | 86 | 1011.8 |
| 20260509005936 | 8 | 26 | 3.2 | 4.8 | 0.00 | 0.05 | 0.05 | 90 | 1011.7 |
| 20260509005434 | 8 | 6 | 0.0 | 0.0 | 0.00 | 0.05 | 0.05 | 89 | 1011.7 |
| 20260509004929 | 8 | 348 | 0.0 | 0.0 | 0.00 | 0.05 | 0.05 | 89 | 1011.6 |
| 20260509004426 | 8 | 347 | 0.0 | 0.0 | 0.00 | 0.05 | 0.05 | 89 | 1011.5 |
| 20260509003924 | 8 | 344 | 1.6 | 3.2 | 0.00 | 0.05 | 0.05 | 88 | 1011.5 |
| 20260509003421 | 8 | 2 | 0.0 | 0.0 | 0.00 | 0.05 | 0.05 | 89 | 1011.4 |
| 20260509002917 | 8 | 16 | 0.0 | 0.0 | 0.00 | 0.05 | 0.05 | 88 | 1011.3 |
| 20260509002416 | 8 | 358 | 0.0 | 0.0 | 0.00 | 0.05 | 0.05 | 88 | 1011.3 |
| 20260509001912 | 8 | 340 | 0.0 | 0.0 | 0.00 | 0.05 | 0.05 | 87 | 1011.3 |
| 20260509001408 | 8 | 342 | 0.0 | 1.6 | 0.00 | 0.05 | 0.05 | 87 | 1011.3 |
| 20260509000905 | 8 | 334 | 3.2 | 3.2 | 0.00 | 0.05 | 0.05 | 87 | 1011.2 |
| 20260509000403 | 8 | 341 | 0.0 | 1.6 | 0.00 | 0.05 | 0.05 | 86 | 1011.1 |
| 20260508235859 | 8 | 26 | 1.6 | 1.6 | 0.00 | 0.05 | 0.05 | 86 | 1010.9 |
| 20260508235356 | 8 | 17 | 0.0 | 1.6 | 0.00 | 0.05 | 0.05 | 86 | 1011.2 |
| 20260508234853 | 9 | 327 | 1.6 | 1.6 | 0.00 | 0.05 | 0.05 | 85 | 1011.0 |
| 20260508234349 | 9 | 18 | 3.2 | 4.8 | 0.00 | 0.05 | 0.05 | 83 | 1011.1 |
| 20260508233848 | 10 | 349 | 3.2 | 3.2 | 0.00 | 0.05 | 0.05 | 82 | 1011.0 |
| 20260508233347 | 10 | 326 | 1.6 | 1.6 | 0.00 | 0.05 | 0.05 | 81 | 1011.0 |
| 20260508232844 | 10 | 344 | 0.0 | 0.0 | 0.00 | 0.05 | 0.05 | 79 | 1010.9 |
| 20260508232340 | 10 | 8 | 0.0 | 0.0 | 0.00 | 0.05 | 0.05 | 76 | 1010.9 |
| 20260508231838 | 10 | 330 | 1.6 | 1.6 | 0.00 | 0.05 | 0.05 | 75 | 1010.9 |
| 20260508231334 | 10 | 337 | 0.0 | 0.0 | 0.00 | 0.05 | 0.05 | 74 | 1011.0 |
| 20260508230831 | 10 | 350 | 0.0 | 0.0 | 0.00 | 0.05 | 0.05 | 74 | 1010.8 |
| 20260508230327 | 10 | 343 | 1.6 | 1.6 | 0.00 | 0.05 | 0.05 | 75 | 1010.7 |
| 20260508225826 | 10 | 340 | 1.6 | 1.6 | 0.00 | 0.05 | 0.05 | 73 | 1010.8 |
| 20260508225322 | 10 | 324 | 1.6 | 3.2 | 0.00 | 0.05 | 0.05 | 75 | 1010.8 |
| 20260508224820 | 10 | 332 | 0.0 | 1.6 | 0.00 | 0.05 | 0.05 | 76 | 1010.6 |
| 20260508224317 | 10 | 350 | 1.6 | 1.6 | 0.00 | 0.05 | 0.05 | 75 | 1010.6 |
| 20260508223815 | 10 | 350 | 3.2 | 3.2 | 0.00 | 0.05 | 0.05 | 74 | 1010.4 |
| 20260508223312 | 10 | 0 | 1.6 | 1.6 | 0.00 | 0.05 | 0.05 | 72 | 1010.6 |
| 20260508222809 | 11 | 338 | 4.8 | 6.4 | 0.00 | 0.05 | 0.05 | 72 | 1010.6 |
| 20260508222306 | 11 | 322 | 1.6 | 3.2 | 0.00 | 0.05 | 0.05 | 75 | 1010.3 |
| 20260508221803 | 10 | 334 | 1.6 | 1.6 | 0.00 | 0.05 | 0.05 | 74 | 1010.6 |
| 20260508221258 | 10 | 342 | 3.2 | 3.2 | 0.00 | 0.05 | 0.05 | 77 | 1010.6 |
| 20260508220755 | 10 | 342 | 3.2 | 3.2 | 0.00 | 0.05 | 0.05 | 78 | 1010.6 |
| 20260508220252 | 10 | 345 | 3.2 | 3.2 | 0.00 | 0.05 | 0.05 | 79 | 1010.8 |
| 20260508215743 | 10 | 345 | 0.0 | 0.0 | 0.00 | 0.05 | 0.05 | 78 | 1010.7 |
| 20260508215239 | 10 | 344 | 1.6 | 1.6 | 0.00 | 0.05 | 0.05 | 79 | 1010.7 |
| 20260508214736 | 10 | 348 | 0.0 | 0.0 | 0.00 | 0.05 | 0.05 | 78 | 1010.8 |
| 20260508214233 | 10 | 343 | 4.8 | 4.8 | 0.00 | 0.05 | 0.05 | 79 | 1010.9 |
| 20260508213730 | 10 | 343 | 3.2 | 3.2 | 0.00 | 0.05 | 0.05 | 78 | 1010.8 |